ITY630 LIRF-KMIA

Flight info

Callsign ITY630
Flight time N/A
Altitude 36000
Route PODOX DCT TOBGA DCT DOBIM DCT PIGOS DCT BODRU DCT KOTIT DCT ETREK DCT NOQAS DCT LERGA DCT VALKU DCT PECNO DCT LMG DCT MANAK UT183 BAGAD DCT LARLA DCT RATKA/M085F360 DCT SOMAX NATH OMSAT DCT CARAC M201 DRYED DCT KINER DCT JNFOX DCT FLUPS DCT MAPYL/N0497F360 G437 ZQA BR49V NICKO VIICE2
Aircraft A359/H-SDE2E3GHIJ1J3J4J5LM1ORWXY/LB1D1

Departure

Time 2026-05-06 10:54
Airport Rome–Fiumicino Leonardo da Vinci International Airport (LIRF)

Arrival

Time N/A
Airport Miami International Airport (KMIA)
Time Latitude Longitude Altitude Speed Heading
2026-05-06 10:22 41.79842 12.24656 21 ft 0 kts 160°
2026-05-06 10:44 41.79846 12.24654 21 ft 2 kts 160°
2026-05-06 10:44 41.79864 12.24646 24 ft 3 kts 159°
2026-05-06 10:44 41.79884 12.24636 25 ft 3 kts 159°
2026-05-06 10:45 41.79903 12.24627 26 ft 3 kts 159°
2026-05-06 10:45 41.79921 12.24617 25 ft 2 kts 159°
2026-05-06 10:45 41.79931 12.24612 26 ft 2 kts 162°
2026-05-06 10:45 41.79947 12.24607 25 ft 3 kts 188°
2026-05-06 10:46 41.79956 12.24607 26 ft 3 kts 227°
2026-05-06 10:46 41.79960 12.24613 26 ft 3 kts 266°
2026-05-06 10:46 41.79961 12.24640 26 ft 3 kts 265°
2026-05-06 10:46 41.79963 12.24664 25 ft 2 kts 253°
2026-05-06 10:47 41.79964 12.24671 26 ft 5 kts 249°
2026-05-06 10:48 41.79962 12.24664 25 ft 0 kts 249°
2026-05-06 10:49 41.79951 12.24623 26 ft 12 kts 250°
2026-05-06 10:49 41.79915 12.24493 21 ft 16 kts 249°
2026-05-06 10:49 41.79940 12.24377 21 ft 15 kts 298°
2026-05-06 10:49 41.79967 12.24240 22 ft 13 kts 311°
2026-05-06 10:50 41.79994 12.24116 21 ft 17 kts 260°
2026-05-06 10:50 41.79966 12.23931 21 ft 23 kts 248°
2026-05-06 10:50 41.79911 12.23724 21 ft 20 kts 261°
2026-05-06 10:50 41.79946 12.23641 21 ft 12 kts 329°
2026-05-06 10:51 41.80056 12.23591 28 ft 22 kts 342°
2026-05-06 10:51 41.80245 12.23511 21 ft 34 kts 342°
2026-05-06 10:51 41.80502 12.23404 21 ft 43 kts 343°
2026-05-06 10:51 41.80811 12.23273 21 ft 51 kts 342°
2026-05-06 10:52 41.81150 12.23133 21 ft 49 kts 342°
2026-05-06 10:52 41.81328 12.23059 21 ft 20 kts 342°
2026-05-06 10:52 41.81434 12.22932 22 ft 25 kts 295°
2026-05-06 10:52 41.81492 12.22739 21 ft 12 kts 264°
2026-05-06 10:53 41.81452 12.22694 20 ft 9 kts 195°
2026-05-06 10:53 41.81380 12.22712 20 ft 13 kts 165°
2026-05-06 10:53 41.81126 12.22816 22 ft 67 kts 162°
2026-05-06 10:53 41.80499 12.23078 22 ft 120 kts 162°
2026-05-06 10:54 41.79555 12.23475 102 ft 156 kts 162°
2026-05-06 10:54 41.78561 12.23914 785 ft 147 kts 159°
2026-05-06 10:54 41.77559 12.24341 1244 ft 158 kts 162°
2026-05-06 10:54 41.76410 12.24703 1482 ft 180 kts 173°
2026-05-06 10:55 41.75145 12.24592 1979 ft 192 kts 193°
2026-05-06 10:55 41.73924 12.23814 2573 ft 198 kts 215°
2026-05-06 10:55 41.72926 12.22519 3186 ft 201 kts 227°
2026-05-06 10:55 41.72054 12.20991 3613 ft 216 kts 237°
2026-05-06 10:56 41.71557 12.18989 3859 ft 241 kts 263°
2026-05-06 10:56 41.71677 12.16692 4359 ft 251 kts 275°
2026-05-06 10:56 41.71951 12.14384 5058 ft 252 kts 276°
2026-05-06 10:56 41.72227 12.12088 5795 ft 252 kts 277°
2026-05-06 10:57 41.72503 12.09771 6523 ft 253 kts 277°
2026-05-06 10:57 41.72784 12.07425 7209 ft 255 kts 277°
2026-05-06 10:57 41.73064 12.05066 7891 ft 259 kts 277°
2026-05-06 10:57 41.73348 12.02667 8588 ft 262 kts 277°
2026-05-06 10:58 41.73636 12.00231 9312 ft 265 kts 277°
2026-05-06 10:58 41.73920 11.97813 10031 ft 267 kts 277°
2026-05-06 10:58 41.74214 11.95305 10463 ft 281 kts 277°
2026-05-06 10:58 41.74524 11.92636 10729 ft 299 kts 277°
2026-05-06 10:59 41.74854 11.89793 11001 ft 317 kts 277°
2026-05-06 10:59 41.75203 11.86792 11243 ft 333 kts 277°
2026-05-06 10:59 41.75567 11.83666 11592 ft 345 kts 277°
2026-05-06 10:59 41.75940 11.80458 12139 ft 351 kts 277°
2026-05-06 11:00 41.76445 11.77237 12750 ft 356 kts 284°
2026-05-06 11:00 41.77370 11.74160 13357 ft 362 kts 292°
2026-05-06 11:00 41.78526 11.71121 13945 ft 367 kts 295°
2026-05-06 11:00 41.79799 11.68125 14494 ft 371 kts 297°
2026-05-06 11:01 41.81130 11.65148 15064 ft 374 kts 298°
2026-05-06 11:01 41.82472 11.62190 15638 ft 376 kts 298°
2026-05-06 11:01 41.83836 11.59176 16229 ft 379 kts 298°
2026-05-06 11:01 41.85197 11.56137 16796 ft 381 kts 297°
2026-05-06 11:02 41.86562 11.53061 17362 ft 384 kts 297°
2026-05-06 11:02 41.87928 11.49957 17920 ft 387 kts 297°
2026-05-06 11:02 41.89301 11.46824 18445 ft 390 kts 297°
2026-05-06 11:02 41.90665 11.43704 18936 ft 393 kts 297°
2026-05-06 11:03 41.92051 11.40526 19453 ft 395 kts 297°
2026-05-06 11:03 41.93449 11.37322 19958 ft 397 kts 297°
2026-05-06 11:03 41.94855 11.34099 20492 ft 400 kts 297°
2026-05-06 11:03 41.96261 11.30870 21032 ft 402 kts 297°
2026-05-06 11:04 41.97678 11.27613 21574 ft 405 kts 297°
2026-05-06 11:04 41.99086 11.24373 22088 ft 407 kts 297°
2026-05-06 11:04 42.00519 11.21070 22625 ft 410 kts 297°
2026-05-06 11:04 42.01965 11.17736 23160 ft 412 kts 297°
2026-05-06 11:05 42.03416 11.14388 23666 ft 415 kts 297°
2026-05-06 11:05 42.04875 11.11016 24081 ft 418 kts 297°
2026-05-06 11:05 42.06341 11.07626 24516 ft 420 kts 297°
2026-05-06 11:05 42.07815 11.04213 24938 ft 423 kts 297°
2026-05-06 11:06 42.09296 11.00777 25362 ft 426 kts 297°
2026-05-06 11:06 42.10782 10.97327 25786 ft 428 kts 296°
2026-05-06 11:06 42.12262 10.93889 26201 ft 430 kts 296°
2026-05-06 11:06 42.13766 10.90389 26627 ft 432 kts 296°
2026-05-06 11:07 42.15276 10.86871 27042 ft 435 kts 296°
2026-05-06 11:07 42.16793 10.83332 27457 ft 437 kts 296°
2026-05-06 11:07 42.18314 10.79779 27862 ft 439 kts 296°
2026-05-06 11:07 42.19850 10.76188 28282 ft 442 kts 296°
2026-05-06 11:08 42.21388 10.72586 28675 ft 444 kts 296°
2026-05-06 11:08 42.22941 10.68947 29059 ft 446 kts 296°
2026-05-06 11:08 42.24473 10.65350 29433 ft 449 kts 295°
2026-05-06 11:08 42.26055 10.61688 29806 ft 452 kts 297°
2026-05-06 11:09 42.27893 10.58212 30115 ft 459 kts 305°
2026-05-06 11:09 42.30085 10.55016 30392 ft 465 kts 310°
2026-05-06 11:09 42.32469 10.52020 30644 ft 470 kts 313°
2026-05-06 11:09 42.34957 10.49136 30903 ft 473 kts 314°
2026-05-06 11:10 42.37510 10.46277 31215 ft 475 kts 315°
2026-05-06 11:10 42.40064 10.43436 31594 ft 474 kts 315°
2026-05-06 11:10 42.42568 10.40634 31952 ft 473 kts 314°
2026-05-06 11:10 42.45097 10.37774 32302 ft 472 kts 314°
2026-05-06 11:11 42.47606 10.34910 32638 ft 471 kts 314°
2026-05-06 11:11 42.50114 10.32027 32975 ft 471 kts 314°
2026-05-06 11:11 42.52610 10.29147 33320 ft 470 kts 314°
2026-05-06 11:11 42.55071 10.26300 33620 ft 470 kts 314°
2026-05-06 11:12 42.57559 10.23420 33924 ft 469 kts 313°
2026-05-06 11:12 42.60052 10.20531 34187 ft 469 kts 313°
2026-05-06 11:12 42.62540 10.17645 34433 ft 469 kts 313°
2026-05-06 11:12 42.65029 10.14757 34681 ft 469 kts 313°
2026-05-06 11:13 42.67484 10.11904 34920 ft 469 kts 313°
2026-05-06 11:13 42.69971 10.09013 35173 ft 468 kts 313°
2026-05-06 11:13 42.72451 10.06126 35380 ft 468 kts 313°
2026-05-06 11:13 42.74894 10.03280 35602 ft 468 kts 313°
2026-05-06 11:14 42.77364 10.00399 35823 ft 468 kts 313°
2026-05-06 11:14 42.82337 9.94582 35924 ft 475 kts 313°
2026-05-06 11:15 42.87336 9.88691 35922 ft 473 kts 311°
2026-05-06 11:15 42.91603 9.82008 35925 ft 464 kts 302°
2026-05-06 11:16 42.95234 9.74859 35929 ft 457 kts 293°
2026-05-06 11:16 42.97811 9.66974 35925 ft 452 kts 287°
2026-05-06 11:17 43.00148 9.58982 35921 ft 452 kts 287°
2026-05-06 11:17 43.02439 9.51028 35923 ft 452 kts 287°
2026-05-06 11:18 43.04756 9.43025 35923 ft 453 kts 287°
2026-05-06 11:18 43.07082 9.35008 35922 ft 453 kts 287°
2026-05-06 11:19 43.09401 9.27002 35922 ft 454 kts 286°
2026-05-06 11:19 43.11727 9.18942 35921 ft 454 kts 286°
2026-05-06 11:20 43.14028 9.10943 35922 ft 455 kts 286°
2026-05-06 11:20 43.16349 9.02848 35918 ft 455 kts 286°
2026-05-06 11:21 43.18665 8.94744 35915 ft 456 kts 286°
2026-05-06 11:21 43.20958 8.86696 35918 ft 456 kts 286°
2026-05-06 11:22 43.23260 8.78587 35915 ft 457 kts 286°
2026-05-06 11:22 43.25567 8.70438 35912 ft 457 kts 286°
2026-05-06 11:23 43.27863 8.62299 35914 ft 457 kts 286°
2026-05-06 11:23 43.30138 8.54207 35898 ft 457 kts 285°
2026-05-06 11:24 43.32423 8.46055 35908 ft 457 kts 285°
2026-05-06 11:24 43.34709 8.37871 35902 ft 458 kts 285°
2026-05-06 11:25 43.36974 8.29736 35899 ft 458 kts 285°
2026-05-06 11:25 43.39247 8.21546 35899 ft 458 kts 285°
2026-05-06 11:26 43.41501 8.13398 35897 ft 458 kts 285°
2026-05-06 11:26 43.43764 8.05189 35894 ft 458 kts 285°
2026-05-06 11:27 43.46018 7.96987 35891 ft 458 kts 285°
2026-05-06 11:27 43.48271 7.88758 35889 ft 458 kts 285°
2026-05-06 11:28 43.50501 7.80585 35886 ft 458 kts 285°
2026-05-06 11:28 43.52739 7.72352 35885 ft 458 kts 285°
2026-05-06 11:29 43.54974 7.64110 35884 ft 458 kts 284°
2026-05-06 11:29 43.57192 7.55909 35914 ft 458 kts 284°
2026-05-06 11:30 43.59416 7.47656 35883 ft 458 kts 283°
2026-05-06 11:30 43.61738 7.39494 35886 ft 463 kts 289°
2026-05-06 11:31 43.65329 7.31933 35886 ft 476 kts 301°
2026-05-06 11:31 43.69501 7.24846 35884 ft 479 kts 302°
2026-05-06 11:32 43.73065 7.18955 35891 ft 480 kts 302°
2026-05-06 11:32 43.77342 7.11849 35880 ft 480 kts 302°
2026-05-06 11:33 43.81580 7.04742 35880 ft 480 kts 302°
2026-05-06 11:33 43.85824 6.97580 35871 ft 480 kts 302°
2026-05-06 11:34 43.90045 6.90440 35866 ft 480 kts 302°
2026-05-06 11:34 43.94282 6.83260 35860 ft 479 kts 302°
2026-05-06 11:35 43.98491 6.76108 35867 ft 480 kts 302°
2026-05-06 11:35 44.02711 6.68920 35877 ft 481 kts 302°
2026-05-06 11:36 44.06917 6.61743 35879 ft 480 kts 302°
2026-05-06 11:36 44.11141 6.54517 35887 ft 481 kts 302°
2026-05-06 11:37 44.15365 6.47267 35898 ft 481 kts 302°
2026-05-06 11:37 44.19559 6.40050 35897 ft 482 kts 302°
2026-05-06 11:38 44.23778 6.32776 35899 ft 482 kts 302°
2026-05-06 11:38 44.27976 6.25519 35898 ft 482 kts 302°
2026-05-06 11:39 44.32181 6.18233 35905 ft 482 kts 302°
2026-05-06 11:39 44.36389 6.10920 35906 ft 482 kts 302°
2026-05-06 11:40 44.40569 6.03637 35910 ft 483 kts 302°
2026-05-06 11:40 44.44784 5.96279 35915 ft 483 kts 302°
2026-05-06 11:41 44.48993 5.88913 35913 ft 484 kts 302°
2026-05-06 11:41 44.53172 5.81583 35916 ft 484 kts 302°
2026-05-06 11:42 44.57371 5.74194 35918 ft 484 kts 302°
2026-05-06 11:42 44.61567 5.66794 35917 ft 484 kts 303°
2026-05-06 11:43 44.65775 5.59357 35925 ft 485 kts 303°
2026-05-06 11:43 44.69931 5.51978 35925 ft 485 kts 303°
2026-05-06 11:44 44.76228 5.40763 35922 ft 485 kts 303°
2026-05-06 11:44 44.80393 5.33331 35937 ft 486 kts 303°
2026-05-06 11:45 44.84586 5.25828 35938 ft 486 kts 303°
2026-05-06 11:45 44.88770 5.18316 35946 ft 486 kts 303°
2026-05-06 11:46 44.92925 5.10839 35943 ft 486 kts 303°
2026-05-06 11:46 44.97105 5.03301 35942 ft 487 kts 303°
2026-05-06 11:47 45.01259 4.95787 35941 ft 487 kts 303°
2026-05-06 11:47 45.05426 4.88228 35938 ft 487 kts 303°
2026-05-06 11:48 45.09586 4.80662 35945 ft 487 kts 303°
2026-05-06 11:48 45.13744 4.73081 35931 ft 487 kts 303°
2026-05-06 11:49 45.17423 4.65183 35940 ft 479 kts 291°
2026-05-06 11:49 45.19369 4.56280 35941 ft 470 kts 275°
2026-05-06 11:50 45.20231 4.47107 35931 ft 469 kts 273°
2026-05-06 11:50 45.20928 4.37883 35935 ft 470 kts 273°
2026-05-06 11:51 45.21624 4.28658 35930 ft 470 kts 273°
2026-05-06 11:51 45.22339 4.19481 35928 ft 471 kts 273°
2026-05-06 11:52 45.23063 4.10232 35923 ft 471 kts 273°
2026-05-06 11:52 45.23776 4.00973 35918 ft 472 kts 273°
2026-05-06 11:53 45.24479 3.91743 35916 ft 473 kts 273°
2026-05-06 11:53 45.25439 3.82470 35917 ft 477 kts 282°
2026-05-06 11:54 45.28046 3.73752 35919 ft 485 kts 299°
2026-05-06 11:54 45.32499 3.66537 35915 ft 493 kts 314°
2026-05-06 11:55 45.37665 3.60062 35920 ft 495 kts 316°
2026-05-06 11:55 45.42870 3.53703 35914 ft 495 kts 316°
2026-05-06 11:56 45.48092 3.47254 35915 ft 495 kts 316°
2026-05-06 11:56 45.53286 3.40771 35916 ft 495 kts 316°
2026-05-06 11:57 45.58446 3.34297 35914 ft 495 kts 316°
2026-05-06 11:57 45.63629 3.27780 35912 ft 495 kts 316°
2026-05-06 11:58 45.68766 3.21306 35916 ft 495 kts 316°
2026-05-06 11:58 45.73937 3.14774 35908 ft 495 kts 316°
2026-05-06 11:59 45.79108 3.08224 35909 ft 495 kts 316°
2026-05-06 11:59 45.84239 3.01708 35899 ft 495 kts 316°
2026-05-06 12:00 45.89386 2.95155 35917 ft 495 kts 316°
2026-05-06 12:00 45.94374 2.88345 35903 ft 492 kts 308°
2026-05-06 12:01 45.97937 2.80056 35914 ft 486 kts 290°
2026-05-06 12:01 45.99419 2.70714 35898 ft 482 kts 271°
2026-05-06 12:02 45.99325 2.61075 35898 ft 481 kts 266°
2026-05-06 12:02 45.98980 2.51454 35904 ft 482 kts 265°
2026-05-06 12:03 45.98632 2.41880 35901 ft 482 kts 266°
2026-05-06 12:03 45.98307 2.32242 35902 ft 481 kts 266°
2026-05-06 12:04 45.97989 2.22615 35902 ft 481 kts 266°
2026-05-06 12:04 45.97667 2.13040 35906 ft 482 kts 266°
2026-05-06 12:05 45.97333 2.03398 35906 ft 482 kts 266°
2026-05-06 12:05 45.96991 1.93765 35910 ft 482 kts 266°
2026-05-06 12:06 45.96262 1.84280 35909 ft 480 kts 257°
2026-05-06 12:06 45.94722 1.74923 35908 ft 480 kts 255°
2026-05-06 12:07 45.93058 1.65632 35912 ft 480 kts 255°
2026-05-06 12:07 45.91372 1.56325 35914 ft 481 kts 255°
2026-05-06 12:08 45.89703 1.47080 35912 ft 481 kts 255°
2026-05-06 12:08 45.88022 1.37766 35910 ft 482 kts 255°
2026-05-06 12:09 45.86329 1.28424 35913 ft 482 kts 255°
2026-05-06 12:09 45.84630 1.19100 35913 ft 482 kts 255°
2026-05-06 12:10 45.82977 1.09835 35911 ft 483 kts 258°
2026-05-06 12:10 45.82554 1.00231 35909 ft 483 kts 275°
2026-05-06 12:11 45.83990 0.90825 35913 ft 484 kts 285°
2026-05-06 12:11 45.85928 0.81618 35911 ft 485 kts 287°
2026-05-06 12:12 45.87929 0.72357 35908 ft 485 kts 286°
2026-05-06 12:12 45.89891 0.63084 35910 ft 485 kts 286°
2026-05-06 12:13 45.91809 0.53863 35909 ft 485 kts 286°
2026-05-06 12:13 45.93729 0.44557 35910 ft 485 kts 286°
2026-05-06 12:14 45.95632 0.35294 35910 ft 485 kts 286°
2026-05-06 12:14 45.97535 0.25991 35911 ft 485 kts 286°
2026-05-06 12:15 45.99437 0.16659 35908 ft 485 kts 286°
2026-05-06 12:15 46.01311 0.07416 35910 ft 484 kts 286°
2026-05-06 12:16 46.03193 -0.01909 35911 ft 484 kts 286°
2026-05-06 12:16 46.05065 -0.11230 35911 ft 483 kts 286°
2026-05-06 12:17 46.06912 -0.20469 35916 ft 483 kts 286°
2026-05-06 12:17 46.08762 -0.29768 35918 ft 482 kts 286°
2026-05-06 12:18 46.10602 -0.39059 35922 ft 481 kts 286°
2026-05-06 12:18 46.12418 -0.48276 35921 ft 480 kts 286°
2026-05-06 12:19 46.14236 -0.57543 35922 ft 480 kts 286°
2026-05-06 12:19 46.16049 -0.66829 35930 ft 480 kts 286°
2026-05-06 12:20 46.17845 -0.76076 35931 ft 480 kts 286°
2026-05-06 12:20 46.19339 -0.83789 35935 ft 480 kts 286°
2026-05-06 12:21 46.21967 -0.92624 35937 ft 479 kts 302°
2026-05-06 12:21 46.26301 -0.99901 35942 ft 478 kts 319°
2026-05-06 12:22 46.31441 -1.06036 35939 ft 479 kts 321°
2026-05-06 12:22 46.36641 -1.11982 35940 ft 479 kts 321°
2026-05-06 12:23 46.41863 -1.17990 35941 ft 479 kts 321°
2026-05-06 12:23 46.47073 -1.24049 35952 ft 479 kts 321°
2026-05-06 12:24 46.52224 -1.30075 35957 ft 478 kts 321°
2026-05-06 12:24 46.57402 -1.36148 35962 ft 478 kts 321°
2026-05-06 12:25 46.62292 -1.42724 35966 ft 478 kts 315°
2026-05-06 12:25 46.66939 -1.49676 35967 ft 478 kts 314°
2026-05-06 12:26 46.71522 -1.56653 35965 ft 479 kts 314°
2026-05-06 12:26 46.76138 -1.63696 35961 ft 479 kts 314°
2026-05-06 12:27 46.80718 -1.70689 35961 ft 479 kts 314°
2026-05-06 12:27 46.85331 -1.77743 35963 ft 479 kts 314°
2026-05-06 12:28 46.89900 -1.84747 35962 ft 479 kts 314°
2026-05-06 12:28 46.94499 -1.91817 35959 ft 479 kts 314°
2026-05-06 12:29 46.99109 -1.98922 35962 ft 479 kts 314°
2026-05-06 12:29 47.03698 -2.05940 35958 ft 479 kts 314°
2026-05-06 12:30 47.08408 -2.12895 35976 ft 480 kts 315°
2026-05-06 12:30 47.13092 -2.19802 35963 ft 480 kts 315°
2026-05-06 12:31 47.17798 -2.26801 35959 ft 480 kts 314°
2026-05-06 12:31 47.22482 -2.33809 35977 ft 481 kts 314°
2026-05-06 12:32 47.27174 -2.40852 35963 ft 481 kts 314°
2026-05-06 12:32 47.31859 -2.47900 35960 ft 481 kts 314°
2026-05-06 12:33 47.36507 -2.54912 35958 ft 481 kts 314°
2026-05-06 12:33 47.41196 -2.62004 35973 ft 481 kts 314°
2026-05-06 12:34 47.45870 -2.69093 35973 ft 481 kts 314°